York, NE

10:17 PM CDT on April 28, 2017 (GMT -0500)
York Municipal

Weather History for KJYR - May, 2013

Change the Weather History Date:

Monday, May 20, 2013

  Actual Average Record
Temperature  
Mean Temperature 63 °F -  
Max Temperature 71 °F 75 °F 93 °F (1970)
Min Temperature 55 °F 52 °F 37 °F (1968)
Degree Days  
Heating Degree Days 2    
Growing Degree Days 13 (Base 50)    
Moisture  
Dew Point 54 °F    
Average Humidity 76    
Maximum Humidity 94    
Minimum Humidity 49    
Precipitation  
Precipitation 0.00 in - - ()
Sea Level Pressure  
Sea Level Pressure 29.62 in    
Wind  
Wind Speed 14 mph (WSW)    
Max Wind Speed 26 mph    
Max Gust Speed 31 mph    
Visibility 10 miles    
Events Rain    
Averages and records for this station are not official NWS values.
T = Trace of Precipitation, MM = Missing Value Source: NWS Daily Summary

Daily Weather History Graph

Daily Weather History Graph

Search for Another Location

Airport or City:

Trip Planner

Search our weather history database for the weather conditions in past years. The results will help you decide how hot, cold, wet, or windy it might be!

Date:

Astronomy

May. 20, 2013 Rise Set
Actual Time 6:08 AM CDT 8:46 PM CDT
Civil Twilight 5:36 AM CDT 9:18 PM CDT
Nautical Twilight 4:56 AM CDT 9:57 PM CDT
Astronomical Twilight 4:12 AM CDT 10:42 PM CDT
Moon 3:53 PM CDT (5/20) 3:06 AM CDT (5/20)
Length of Visible Light 15h 41m
Length of Day
14h 38m
Waxing Gibbous, 75% of the Moon is Illuminated
May 20
Waxing Gibbous
May 24
Full
May 31
Last Quarter
Jun 8
New
Jun 16
First Quarter

Hourly Weather History & Observations

Time (CDT) Temp. Dew Point Humidity Pressure Visibility Wind Dir Wind Speed Gust Speed Precip Events Conditions
12:15 AM 59.0 °F 57.2 °F 94% 29.55 in 10.0 mi SSW 9.2 mph - N/A   Clear
12:35 AM 59.0 °F 57.2 °F 94% 29.56 in 10.0 mi SSW 8.1 mph - N/A   Clear
12:55 AM 59.0 °F 55.4 °F 88% 29.57 in 10.0 mi SW 8.1 mph - N/A   Clear
1:15 AM 57.2 °F 55.4 °F 94% 29.57 in 10.0 mi SW 10.4 mph - N/A   Clear
1:35 AM 57.2 °F 53.6 °F 88% 29.56 in 10.0 mi SW 10.4 mph - N/A   Clear
1:55 AM 57.2 °F 53.6 °F 88% 29.55 in 10.0 mi SW 11.5 mph - N/A   Clear
2:15 AM 57.2 °F 53.6 °F 88% 29.55 in 10.0 mi SW 11.5 mph - N/A   Partly Cloudy
2:35 AM 57.2 °F 53.6 °F 88% 29.54 in 10.0 mi WSW 13.8 mph - N/A   Mostly Cloudy
2:55 AM 57.2 °F 55.4 °F 94% 29.54 in 10.0 mi WSW 12.7 mph - N/A   Overcast
3:15 AM 57.2 °F 55.4 °F 94% 29.55 in 10.0 mi WSW 10.4 mph - N/A   Overcast
3:35 AM 59.0 °F 57.2 °F 94% 29.54 in 10.0 mi WNW 10.4 mph - N/A   Overcast
3:55 AM 59.0 °F 57.2 °F 94% 29.55 in 10.0 mi NW 16.1 mph 20.7 mph N/A   Overcast
4:35 AM 57.2 °F 55.4 °F 94% 29.58 in 10.0 mi NW 18.4 mph 23.0 mph N/A   Overcast
4:55 AM 57.2 °F 55.4 °F 94% 29.59 in 10.0 mi NW 12.7 mph - N/A   Overcast
5:15 AM 57.2 °F 53.6 °F 88% 29.61 in 10.0 mi WNW 10.4 mph - N/A   Mostly Cloudy
5:35 AM 55.4 °F 53.6 °F 94% 29.63 in 10.0 mi West 8.1 mph - N/A   Overcast
6:15 AM 55.4 °F 53.6 °F 94% 29.64 in 10.0 mi West 9.2 mph - N/A   Mostly Cloudy
7:15 AM 57.2 °F 55.4 °F 94% 29.67 in 10.0 mi WSW 12.7 mph - N/A   Scattered Clouds
7:35 AM 57.2 °F 55.4 °F 94% 29.68 in 10.0 mi West 12.7 mph - N/A   Scattered Clouds
7:55 AM 57.2 °F 55.4 °F 94% 29.67 in 10.0 mi West 12.7 mph - N/A Rain Light Rain
8:15 AM 57.2 °F 55.4 °F 94% 29.68 in 10.0 mi WSW 12.7 mph - N/A Rain Light Rain
8:35 AM 59.0 °F 55.4 °F 88% 29.67 in 10.0 mi West 10.4 mph - N/A   Clear
9:15 AM 59.0 °F 55.4 °F 88% 29.67 in 10.0 mi West 13.8 mph - N/A Rain Light Rain
9:35 AM 60.8 °F 57.2 °F 88% 29.67 in 10.0 mi West 18.4 mph - N/A   Partly Cloudy
9:55 AM 62.6 °F 57.2 °F 82% 29.67 in 10.0 mi West 17.3 mph - N/A   Clear
10:35 AM 64.4 °F 55.4 °F 73% 29.67 in 10.0 mi WSW 15.0 mph - N/A   Clear
10:55 AM 66.2 °F 55.4 °F 68% 29.67 in 10.0 mi WSW 15.0 mph - N/A   Clear
11:15 AM 66.2 °F 57.2 °F 73% 29.67 in 10.0 mi WSW 15.0 mph 20.7 mph N/A   Partly Cloudy
11:35 AM 66.2 °F 55.4 °F 68% 29.66 in 10.0 mi SW 13.8 mph - N/A   Partly Cloudy
11:55 AM 66.2 °F 55.4 °F 68% 29.66 in 10.0 mi SW 18.4 mph 26.5 mph N/A   Scattered Clouds
12:15 PM 68.0 °F 55.4 °F 64% 29.66 in 10.0 mi SW 21.9 mph 26.5 mph N/A   Scattered Clouds
12:35 PM 68.0 °F 57.2 °F 68% 29.65 in 10.0 mi SW 20.7 mph 26.5 mph N/A   Scattered Clouds
1:15 PM 68.0 °F 57.2 °F 68% 29.65 in 10.0 mi WSW 21.9 mph 28.8 mph N/A   Mostly Cloudy
1:35 PM 69.8 °F 55.4 °F 60% 29.65 in 10.0 mi SW 24.2 mph 27.6 mph N/A   Scattered Clouds
1:55 PM 68.0 °F 53.6 °F 60% 29.65 in 10.0 mi WSW 21.9 mph 26.5 mph N/A   Mostly Cloudy
2:15 PM 68.0 °F 55.4 °F 64% 29.65 in 10.0 mi West 19.6 mph 23.0 mph N/A   Overcast
2:35 PM 69.8 °F 55.4 °F 60% 29.64 in 10.0 mi WSW 20.7 mph 27.6 mph N/A   Mostly Cloudy
2:55 PM 69.8 °F 53.6 °F 56% 29.64 in 10.0 mi WSW 18.4 mph 21.9 mph N/A   Mostly Cloudy
3:15 PM 69.8 °F 53.6 °F 56% 29.63 in 10.0 mi SW 20.7 mph - N/A   Overcast
3:35 PM 68.0 °F 53.6 °F 60% 29.63 in 10.0 mi WSW 16.1 mph - N/A   Overcast
3:55 PM 69.8 °F 53.6 °F 56% 29.63 in 10.0 mi WSW 19.6 mph 24.2 mph N/A   Overcast
4:15 PM 68.0 °F 53.6 °F 60% 29.62 in 10.0 mi West 16.1 mph - N/A   Overcast
4:35 PM 71.6 °F 53.6 °F 53% 29.62 in 10.0 mi West 17.3 mph - N/A   Mostly Cloudy
4:55 PM 69.8 °F 53.6 °F 56% 29.62 in 10.0 mi West 18.4 mph 24.2 mph N/A   Mostly Cloudy
5:15 PM 71.6 °F 53.6 °F 53% 29.61 in 10.0 mi WSW 18.4 mph 25.3 mph N/A   Partly Cloudy
5:35 PM 71.6 °F 51.8 °F 50% 29.60 in 10.0 mi WSW 19.6 mph 28.8 mph N/A   Clear
5:55 PM 69.8 °F 50.0 °F 49% 29.60 in 10.0 mi WSW 20.7 mph 31.1 mph N/A   Clear
6:15 PM 69.8 °F 53.6 °F 56% 29.60 in 10.0 mi West 19.6 mph 23.0 mph N/A   Clear
6:35 PM 68.0 °F 50.0 °F 52% 29.58 in 10.0 mi West 26.5 mph 29.9 mph N/A   Scattered Clouds
6:55 PM 68.0 °F 50.0 °F 52% 29.58 in 10.0 mi West 19.6 mph 26.5 mph N/A   Mostly Cloudy
7:15 PM 66.2 °F 50.0 °F 56% 29.59 in 10.0 mi West 18.4 mph 27.6 mph N/A   Scattered Clouds
7:35 PM 66.2 °F 50.0 °F 56% 29.60 in 10.0 mi West 18.4 mph - N/A   Clear
7:55 PM 64.4 °F 50.0 °F 59% 29.61 in 10.0 mi West 18.4 mph - N/A   Clear
8:15 PM 62.6 °F 50.0 °F 63% 29.61 in 10.0 mi West 16.1 mph 24.2 mph N/A   Partly Cloudy
8:35 PM 62.6 °F 50.0 °F 63% 29.62 in 10.0 mi West 19.6 mph - N/A   Clear
9:15 PM 60.8 °F 53.6 °F 77% 29.64 in 10.0 mi West 16.1 mph - N/A   Overcast
9:35 PM 59.0 °F 55.4 °F 88% 29.64 in 10.0 mi West 19.6 mph - N/A   Mostly Cloudy
9:55 PM 59.0 °F 55.4 °F 88% 29.64 in 10.0 mi West 17.3 mph - N/A   Mostly Cloudy
10:15 PM 59.0 °F 55.4 °F 88% 29.65 in 10.0 mi WNW 21.9 mph 26.5 mph N/A   Overcast
10:35 PM 57.2 °F 55.4 °F 94% 29.66 in 10.0 mi WNW 18.4 mph - N/A   Mostly Cloudy
10:55 PM 57.2 °F 55.4 °F 94% 29.67 in 10.0 mi WNW 15.0 mph - N/A   Mostly Cloudy
11:15 PM 57.2 °F 55.4 °F 94% 29.68 in 10.0 mi WNW 13.8 mph - N/A   Overcast
11:35 PM 57.2 °F 55.4 °F 94% 29.68 in 9.0 mi WNW 16.1 mph - N/A   Scattered Clouds
11:55 PM 57.2 °F 55.4 °F 94% 29.68 in 10.0 mi WNW 16.1 mph 19.6 mph N/A   Mostly Cloudy